sat.trackr.live / text

‹ back to catalog

STARLINK-3287

NORAD 50172 · 2021-125S

PAYLOAD ACTIVE UNKNOWN

§ Identity

Operator
Country
US
Launch date
2021-12-18
Launch site
AFWTR
Launch vehicle
Mass (kg)
RCS (m²)

Purposes: comms

External: N2YO · Heavens-Above · Gunter

§ Orbital elements

Epoch: 2026-05-24T19:19:29.909856Z

Period
95.44 min
Inclination
53.2127°
Eccentricity
0.0001272
Mean motion
15.08841698 rev/d
Perigee alt
538.9 km
Apogee alt
540.6 km
Semi-major
6,917.9 km
B*
-2.5086e-5
RAAN
267.4263°
Arg perigee
78.4421°
Mean anomaly
281.6714°
Rev number
24,812

§ Raw data

STARLINK-32871 50172U 21125S   26144.80520729 -.00000687  00000+0 -25086-4 0  99932 50172  53.2127 267.4263 0001272  78.4421 281.6714 15.08841698248121

JSON: /api/v1/satellites/50172 · /tle

For live sub-satellite position, see the globe view (requires WebGL).

§ Visibility from observer

Set your observer location to see the next 7 days of passes ≥ 10°. The values pass through the URL so the page stays shareable.

No JS? Fill the form by hand. The geolocation button needs JavaScript.